Location: Mount Kobau Star Party
(49.1167°N, 119.7333°W)
Time: 06:18:43
(UTC-07:00)

ACS3 Solar Sail - Pass Details

Date: 20 June 2024
Orbit: 992 x 1023 km, 97.4° (Epoch: 11 July)

Event Time Altitude Azimuth Distance (km) Brightness Sun altitude
Exits shadow 23:38:07 - 209° (SSW) 3,061 7.0 -15.1°
Reaches altitude 10° 23:39:05 10° 214° (SW) 2,761 6.8 -15.2°
Maximum altitude 23:44:14 27° 270° (W) 1,813 6.4 -15.5°
Drops below altitude 10° 23:49:25 10° 327° (NNW) 2,766 8.4 -15.7°
Sets 23:52:21 0° 340° (NNW) 3,718 9.7 -15.9°
